RH
24 25 25 24 22 15 15 22 15 11 11 12 14 18 14 8 8 19 27 28 28 16 6 7 7 11 11 9 13 14 12 14
8 7 15 28 28 22 10 5 6 5 4 3 5 5 6 7 7 8 8 7 7 8 7 6 5 5 5 5 5 3 15 28
13 8 6 4 4 5 6 7 7 7 8 10 12 13 13 14 14 13 12 12 12 12 12 11 10 8 6 4 5 6 5 5
16 15 14 12 12 13 13 14 14 16 17 18 18 19 18 18 19 20 21 20 18 18 21 22 20 17 16 15 9 4 3 4
16 17 19 16 16 16 15 14 14 15 16 19 20 18 18 19 19 18 18 18 17 18 20 21 22 21 19 17 15 14 14 12
17 18 17 17 18 18 18 16 17 19 23 28 33 38 43 45 46 42 34 24 20 20 19 20 22 25 25 25 26 24 19 14
17 17 16 17 16 17 16 18 26 38 45 47 49 50 50 52 58 61 60 57 53 44 33 26 24 22 22 25 26 28 32 32
10 10 11 11 12 14 18 24 34 42 41 40 43 45 48 50 51 49 48 49 52 55 58 55 48 46 46 44 41 37 33 36
14 20 24 26 27 29 32 34 34 32 33 36 44 46 45 43 41 38 38 40 41 44 49 54 59 62 61 58 55 54 50 41
31 41 46 47 48 50 50 50 48 45 43 42 41 40 39 37 35 35 35 36 40 43 46 49 52 56 59 63 66 64 58 55
47 57 57 52 47 46 42 38 34 33 34 34 34 36 37 36 36 39 39 40 42 43 44 48 52 53 55 59 62 66 68 65
40 53 53 51 49 47 48 50 49 49 49 48 48 48 47 44 44 44 44 42 45 47 50 54 58 59 57 58 60 64 68 70
63 60 53 56 54 53 54 59 59 62 60 58 56 56 55 53 51 50 50 48 47 49 53 57 60 62 60 62 62 64 71 72
69 60 63 64 62 60 59 54 51 52 49 50 48 42 40 38 39 40 40 38 37 43 55 64 66 66 62 62 61 60 59 56
71 76 73 60 53 55 50 50 49 44 41 38 39 39 38 38 37 37 37 39 42 49 56 59 61 60 59 54 49 47 46 45
62 60 59 64 73 59 54 48 39 41 42 43 46 47 46 46 45 45 44 44 45 46 50 54 59 59 57 55 49 46 44 40
63 68 73 73 61 54 48 42 42 39 42 41 46 46 50 56 56 53 49 46 42 38 36 36 38 37 40 39 40 40 40 39
72 63 61 60 56 46 40 41 39 41 46 44 47 52 52 50 46 46 46 46 47 45 44 43 47 49 44 37 33 30 29 32
63 58 61 58 48 39 37 58 61 50 45 42 44 46 45 42 34 25 28 36 42 46 48 46 42 39 33 57 34 29 28 29
50 46 45 39 37 40 41 41 41 48 49 50 48 46 37 13 9 8 8 7 10 19 20 11 17 32 22 80 55 89 82 51
Wind_Speed
20 20 21 21 20 21 21 20 18 16 17 18 18 20 20 19 18 16 16 17 15 9 9 10 11 10 9 10 13 16 20 21
11 12 11 12 13 12 10 11 13 14 14 16 17 18 18 18 20 20 20 21 20 19 18 17 16 16 15 14 14 16 14 17
11 12 12 12 12 13 15 16 19 20 22 24 24 24 24 24 25 25 24 24 23 23 23 22 22 21 21 21 20 19 17 17
12 15 16 16 18 20 21 22 23 24 26 26 26 25 25 26 26 27 26 27 27 26 27 26 25 24 25 25 24 23 23 23
17 16 16 18 18 19 20 22 24 26 27 28 29 29 28 29 29 28 27 27 27 28 28 27 28 26 25 25 27 28 28 28
17 18 17 17 19 21 23 24 25 26 28 29 30 31 32 32 32 34 36 36 35 34 33 32 31 31 31 31 30 29 30 31
21 22 23 23 22 22 23 25 27 28 30 32 34 35 37 38 39 40 39 38 37 39 40 41 40 40 40 40 39 38 35 33
22 23 24 26 27 28 30 31 32 34 37 40 40 41 42 42 43 44 45 44 43 43 43 43 44 44 44 43 44 44 43 41
28 28 29 31 33 34 35 37 39 41 44 47 47 46 47 47 48 49 48 47 48 49 47 46 46 47 49 49 49 49 49 48
25 29 33 35 36 38 39 41 43 45 46 47 47 47 47 48 49 50 51 50 50 51 52 53 54 54 55 55 54 54 54 53
32 35 38 41 42 42 43 45 47 47 47 47 49 51 52 54 55 54 55 55 55 56 57 58 58 58 57 56 57 57 56 56
36 39 42 43 44 42 41 43 47 49 51 53 53 53 54 55 57 59 60 59 58 58 57 57 57 57 58 58 58 58 57 56
36 39 39 41 44 46 46 48 49 49 51 52 54 57 58 58 57 57 57 58 58 57 58 59 59 60 60 59 60 60 59 59
37 40 43 47 48 48 50 52 52 52 53 52 54 55 56 58 58 58 58 60 62 61 58 55 55 55 58 58 58 60 61 63
41 44 46 53 53 54 55 54 54 55 55 55 55 54 56 57 59 60 61 62 61 62 62 62 61 59 57 59 62 61 59 60
42 44 51 53 55 56 55 55 54 55 55 56 55 57 58 60 61 63 64 65 65 66 65 67 67 67 66 61 58 60 62 62
47 50 53 53 54 55 55 57 58 58 57 59 61 62 64 66 67 68 68 68 66 66 66 66 69 70 71 71 69 64 63 65
50 51 50 53 54 56 58 58 59 60 62 63 64 66 67 69 71 73 73 74 74 75 75 74 73 67 69 68 68 68 69 67
51 52 53 54 57 59 59 61 65 68 70 71 72 72 71 72 76 79 79 79 79 79 77 74 74 71 65 66 66 66 66 69
53 54 54 59 60 62 63 65 68 72 74 73 74 77 80 79 76 78 78 79 80 80 78 75 70 68 63 65 68 62 63 65
Wind_Direction
313 310 303 300 305 304 307 313 323 330 338 342 341 339 335 337 342 330 312 301 296 295 296 300 305 296 288 289 277 262 258 257
345 335 330 321 315 315 332 337 332 328 323 321 321 321 319 321 322 322 320 319 314 306 297 294 290 288 283 278 272 267 275 275
350 353 346 345 340 330 327 325 321 320 318 318 319 318 315 312 310 310 308 302 298 297 297 296 290 286 283 283 279 277 275 275
342 343 336 333 331 326 325 323 321 318 316 315 315 313 311 308 304 301 298 296 295 293 293 291 289 288 289 287 281 276 276 277
338 334 323 322 320 316 314 315 319 320 321 322 320 318 316 314 312 308 302 297 294 294 291 288 286 285 283 283 284 283 278 275
323 317 312 312 313 315 313 315 316 316 315 315 315 314 313 313 312 310 308 306 303 299 295 293 291 289 289 290 288 285 282 279
320 318 319 319 316 313 312 312 312 312 312 311 309 309 309 307 307 307 305 301 298 295 293 291 289 287 287 288 288 287 283 278
312 310 310 309 309 310 309 307 304 304 305 305 305 304 303 303 301 301 300 299 297 295 293 288 286 286 285 283 283 282 282 281
315 314 311 309 308 305 302 299 297 297 298 301 302 301 298 297 297 297 295 293 292 292 289 287 285 283 282 280 280 280 279 278
302 307 306 305 304 303 302 302 302 302 302 302 301 300 299 298 298 297 295 294 293 292 290 288 286 284 282 281 280 278 276 275
315 314 311 308 305 304 304 304 304 304 304 303 302 302 301 301 300 298 297 296 295 292 289 287 284 282 280 279 279 278 277 275
306 307 303 301 300 300 300 303 305 303 301 300 300 299 298 297 297 297 297 298 297 295 293 290 286 283 280 279 278 277 276 274
298 297 298 300 298 299 303 306 306 303 301 301 301 301 299 300 300 298 298 298 296 294 292 291 288 286 284 281 280 279 277 273
294 297 301 305 304 305 306 305 304 302 301 303 302 302 302 301 299 300 300 299 298 296 292 287 284 283 283 283 281 280 278 276
293 297 296 300 306 307 305 306 306 306 307 307 306 303 301 299 297 295 293 292 290 289 288 286 285 282 280 279 278 274 273 273
296 296 298 302 302 300 304 303 303 305 304 303 302 300 298 296 294 293 291 290 289 289 289 288 287 286 285 281 276 275 275 273
299 298 298 300 301 304 304 304 304 303 301 300 299 298 297 297 296 294 293 292 291 290 289 289 287 286 285 284 282 280 277 275
295 298 299 301 303 305 303 300 300 301 300 298 296 295 295 295 296 297 296 295 295 294 294 292 290 286 285 283 282 281 280 275
299 302 303 302 303 304 304 302 301 302 301 299 298 296 297 298 298 297 296 294 293 292 291 289 289 288 283 282 280 278 276 274
305 306 304 307 308 304 302 302 300 299 299 300 299 300 301 300 297 295 293 292 292 292 291 289 286 286 278 267 273 280 285 282